Location: Shenandoah County Park
(38.9356°N, 78.4524°W)
Time: 21:26:56
(UTC-05:00)

Courier 1B Rocket - Visible Passes

Search period start: 30 November 2023 00:00
Search period end: 10 December 2023 00:00
Orbit: 920 x 1201 km, 28.2° (Epoch: 30 November)

Date Brightness Start Highest point End Pass type
(mag) Time Alt. Az. Time Alt. Az. Time Alt. Az.
30 Nov 6.8 17:47:33 10° WSW 17:52:34 25° SSW 17:57:45 10° SE visible
30 Nov 7.4 19:42:39 10° SW 19:45:07 12° SSW 19:47:37 10° S visible
01 Dec 7.3 18:40:31 10° WSW 18:44:17 16° SSW 18:48:08 10° SSE visible
02 Dec 7.1 17:39:00 10° WSW 17:43:27 20° SSW 17:48:00 10° SSE visible
03 Dec 7.5 18:33:20 10° SW 18:35:06 11° SSW 18:36:54 10° S visible
04 Dec 7.4 17:30:50 10° SW 17:34:19 15° SSW 17:37:50 10° SSE visible
06 Dec 7.8 17:23:57 10° SW 17:25:08 11° SSW 17:26:19 10° SSW visible
